ONEWEB-0051, 45155

Orbit data source: Space-Track

ONEWEB-0051, 45155 is a payload satellite owned by One Web (UK) in LEO that was launched on Thu, 06 Feb 2020 UTC via a SOYUZ-2-1B launch vehicle from the Tyuratam Missile And Space Complex (TTMTR). Payload-class satellites include a variety of spacecraft equipped with specific instruments for various scientific and technological missions. These include communications satellites like Starlink; space stations such as the ISS; scientific satellites like the Hubble; Earth observation satellites from companies like Planet Labs, Umbra, and HawkEye 360; GPS; miniature CubeSats for education and research; and military/defense satellites.

Loading next visibility...
Identifier
45155, 2020-008AA
Orbit
LEO
Country
Flag of UKUK
Related business
Manufacturer
One Web
Mission
Operational Commercial Communications
Bus & Motor
ARROW, Unknown motor
Mass
148 kg wet, ~140 kg dry
Launch date (UTC)
2020-02-06 (6 years ago)
Launch vehicle
SOYUZ-2-1B
Launch site
Tyuratam Missile And Space Complex (TTMTR)
Object type
Payload
Rocket body
Debris
Shape & HBR
Trap Box + 2 Pan, 6.7 m
Radar Cross Section
3.464 m², Large (>1 m²)

Expand to show TLE details & history
Last TLE update: 1 day ago

TLE from 1 day ago
0 ONEWEB-0051
1 45155U 20008AA  25301.37235648 -.00000394  00000-0 -11484-2 0  9997
2 45155  87.8832  67.2328 0001654  99.8021 260.3294 13.11416251280709
Epoch: 2025-10-28T08:56Z
TLE epoch observation values (Epoch: 2025-10-28T08:56:11.599Z)
Latitude
-0.00002°
Longitude
-103.77632°
Altitude
1,220.786 km
Speed
7.244 km/s
True Right ascension
04h 28m 55s
True Declination
0° 00' 00"
Sunlit
Object was in full shadow at epoch
Visualization orbit readout
Latitude
Unknown
Longitude
Unknown
Altitude
Unknown
Speed
Unknown
Apparent Right ascension
Unknown
Apparent Declination
Unknown
Sunlit
N/A
Visualization observer readout
Local Sidereal Time
10:04:50
Azimuth
Unknown
Elevation
Unknown
Doppler factor
Unknown
Orbital elements
Apogee altitude
1,216.06 km
Perigee altitude
1,213.548 km
Semi-major axis
7,592.941 km
Eccentricity
0.00017
Inclination
87.8832°
RAAN
67.2328°
Arg. of periapsis
99.8021°
True anomaly
260.31072°
Mean anomaly
260.3294°
Eccentric anomaly
260.32006°
Mean motion
3.28041 °/min
Orbital period
109.74 mins
BSTAR
-0.0011484
Loading maneuver chart data...
Computing Atmospheric mass density...
Loading historical data...
Loading historical data...
Loading historical data...
Loading historical data...
Loading historical data...
Loading historical data...
Loading historical data...

Documentation

Showing up to 5 results
|